Theta_e
343 344 347 346 347 346 345 344 347 350 349 347 342 347 350 345 349 341 342 349 349 351 351 352 352 348 345 352 352 352 351 350 349 351 350 350 351 350 349 348 348 346 347
338 343 347 349 350 347 344 344 345 346 346 345 346 350 348 347 348 342 344 348 348 350 351 351 352 350 344 352 352 352 352 351 351 352 351 352 351 349 349 347 347 348 347
340 344 348 349 351 347 345 346 347 347 347 345 350 351 351 351 350 351 349 351 350 351 351 350 351 351 346 347 352 350 349 349 350 350 347 346 348 349 347 349 348 346 348
341 347 349 349 349 348 346 350 349 349 347 349 349 350 351 351 350 352 350 348 350 350 348 351 351 350 344 344 347 346 347 348 352 347 347 348 346 350 347 347 347 348 347
346 347 348 349 350 351 347 346 347 348 349 346 351 352 351 351 351 349 350 351 350 349 350 350 350 350 350 345 346 347 348 348 348 342 344 346 349 349 349 346 348 346 348
348 347 349 350 351 351 352 351 351 351 351 351 351 351 351 351 351 352 351 351 350 350 350 348 350 349 348 345 346 348 347 348 344 342 343 345 349 349 349 348 348 347 341
348 348 349 349 350 351 351 352 352 352 351 350 351 352 352 351 351 351 350 350 351 350 349 348 348 347 345 345 346 346 347 347 346 344 344 347 345 346 349 347 343 337 341
347 348 349 350 351 351 352 352 351 352 351 351 351 352 352 351 351 350 351 350 350 350 350 349 347 346 346 347 346 345 346 346 341 339 341 345 343 348 348 340 344 345 344
344 349 350 350 352 352 351 352 352 352 352 351 352 352 351 350 351 351 351 351 350 349 348 348 340 344 345 345 347 348 347 345 340 342 343 345 343 347 343 341 346 341 339
344 348 350 351 351 351 350 352 352 352 351 347 349 347 351 351 351 349 349 350 349 349 349 345 339 339 343 341 346 347 346 343 339 342 344 345 341 348 348 347 346 345 346
349 348 348 348 350 348 349 353 353 352 342 343 348 348 349 349 347 345 348 350 349 349 349 341 334 335 338 344 346 345 346 346 339 342 343 344 345 348 348 346 345 345 344
350 347 347 347 347 346 350 352 347 345 339 345 348 349 349 348 345 343 348 350 348 341 339 337 337 339 341 342 343 346 347 345 339 343 343 345 345 348 347 346 343 339 344
347 343 347 346 345 345 346 347 342 343 345 346 347 348 348 344 340 340 344 344 346 340 338 340 342 344 345 345 344 345 346 341 338 342 343 345 346 348 347 344 341 344 343
348 344 347 347 345 343 341 342 342 346 348 349 348 346 347 343 340 342 341 340 343 343 341 342 343 344 345 344 344 345 346 342 340 341 342 343 342 347 347 346 344 341 344
347 346 347 347 346 344 340 343 346 349 350 349 348 346 344 346 346 346 345 343 343 345 344 344 344 345 344 344 345 344 345 339 337 340 342 339 341 340 343 345 345 341 340
346 347 347 347 348 345 346 347 349 350 352 348 347 346 346 346 346 346 346 342 344 344 344 344 345 344 344 345 344 344 341 332 332 332 332 335 337 338 340 340 339 339 340
346 347 346 348 349 345 349 350 350 350 350 349 347 344 347 348 345 344 346 344 345 343 345 345 345 343 344 345 344 343 343 336 333 330 330 331 331 330 333 335 339 335 335
347 346 346 348 349 347 348 347 348 348 349 348 346 347 345 347 349 346 347 344 345 344 344 347 346 345 343 345 344 345 344 343 341 342 336 336 335 333 332 331 331 333 334
344 346 347 348 348 346 350 349 348 349 348 349 348 349 348 350 348 347 344 347 347 345 343 341 345 344 344 345 344 344 344 343 344 343 344 344 344 339 338 335 335 335 334
343 348 348 348 346 346 349 348 349 347 349 350 351 351 351 349 348 346 346 346 344 347 345 344 345 343 344 343 342 343 344 344 344 343 343 344 344 345 344 342 340 342 339
342 346 348 348 347 345 348 347 349 350 351 352 350 349 351 350 347 349 347 347 346 345 344 344 344 343 344 343 344 343 344 344 343 343 343 344 344 344 344 345 343 343 344
342 341 342 346 346 344 347 345 347 349 350 348 351 350 351 351 347 346 347 346 347 344 347 346 343 340 340 342 344 342 337 340 342 341 342 343 343 343 344 344 344 344 345
343 343 342 342 343 345 346 343 348 349 349 352 352 350 351 352 352 350 347 346 350 345 347 346 343 339 339 337 343 343 336 336 341 341 342 343 342 341 342 342 343 342 341
343 344 343 344 345 344 344 343 347 349 350 349 349 349 351 353 353 352 350 350 349 348 347 347 345 343 340 342 343 343 343 341 340 332 337 341 342 341 342 342 342 342 342
343 343 345 344 346 346 345 343 346 348 351 348 349 350 350 353 354 351 350 351 349 349 350 349 350 349 347 344 347 343 343 343 341 340 337 339 340 341 343 343 343 342 343
344 343 347 347 346 346 346 346 343 347 347 349 350 351 351 351 352 352 351 350 348 349 348 346 349 349 350 347 349 349 344 338 341 342 341 341 342 342 342 342 343 342 343
Wind_Speed
20 19 15 13 13 14 13 14 15 17 17 16 16 17 16 15 14 12 12 13 12 12 12 13 13 14 15 16 17 18 19 20 22 20 20 18 18 19 18 19 19 20 19
29 21 16 14 14 14 13 14 16 17 17 16 16 15 16 15 14 12 13 13 13 12 12 13 13 15 16 15 17 18 18 20 21 21 20 18 18 18 18 18 18 19 19
29 21 17 16 15 15 15 15 16 17 16 16 15 14 14 14 13 13 13 12 14 13 13 13 13 14 15 15 15 16 17 18 19 19 19 18 18 18 17 17 18 18 18
28 22 20 17 16 16 17 16 16 15 14 13 14 14 14 13 12 12 14 13 13 14 13 14 14 14 15 15 15 16 15 15 18 19 19 18 15 17 16 17 17 17 16
27 24 21 19 17 16 15 15 15 15 14 13 14 14 13 13 12 13 14 13 14 14 14 14 14 14 13 16 15 14 12 14 17 17 18 17 17 15 16 15 16 16 16
27 24 22 19 17 16 16 15 15 15 14 14 14 15 14 12 12 13 13 13 14 13 14 14 15 14 15 17 15 13 15 19 17 17 16 16 17 14 15 15 14 14 14
28 24 22 20 19 18 17 16 16 16 15 15 15 14 13 13 13 12 13 12 12 13 13 14 13 15 19 16 15 19 18 17 14 16 17 16 15 14 14 14 13 13 14
30 25 23 20 20 19 18 17 16 17 16 16 15 13 13 13 14 12 12 12 12 12 12 12 13 16 18 17 19 17 15 14 15 17 17 17 15 13 13 13 14 13 13
29 26 24 21 19 19 18 17 17 17 17 16 15 14 14 14 14 12 12 11 10 11 11 12 14 15 15 15 16 14 14 12 15 18 17 16 13 13 13 13 13 12 12
29 26 25 23 21 20 19 18 17 18 17 17 15 14 13 13 13 12 14 11 10 10 11 12 14 14 15 13 15 13 13 14 14 17 17 16 13 13 12 11 11 11 11
26 27 24 23 22 20 21 18 17 17 19 18 16 16 16 15 14 14 14 11 11 10 10 12 14 15 14 14 11 12 9 13 13 16 16 15 12 12 11 11 10 9 9
28 28 25 24 23 21 22 20 19 19 19 17 17 15 13 12 11 14 13 11 11 11 10 12 14 14 14 12 8 10 3 11 13 15 15 15 12 11 10 10 8 9 8
33 31 26 25 23 22 22 23 22 22 20 16 12 9 11 13 13 14 13 12 11 12 13 11 11 9 9 9 6 9 12 11 14 14 14 13 11 10 9 8 8 7 7
31 33 30 25 25 23 23 24 24 22 18 16 14 13 16 16 16 14 13 12 10 11 7 9 8 9 8 13 9 15 15 13 14 14 13 11 10 10 9 7 7 6 5
30 33 31 29 26 23 24 23 21 18 16 17 18 16 16 14 10 13 12 11 8 5 5 6 11 11 12 13 13 16 17 12 13 13 12 10 9 8 8 7 7 5 5
30 36 33 30 27 24 24 19 17 16 16 20 17 17 14 14 10 10 12 12 12 5 6 6 6 4 10 11 13 19 14 14 13 12 11 10 8 8 7 7 6 5 5
36 38 37 32 28 24 22 16 19 19 21 19 15 15 15 12 11 11 13 15 10 9 7 7 5 4 8 14 17 14 14 14 13 11 11 10 9 7 6 6 6 5 4
34 38 38 30 28 22 20 17 18 21 25 21 17 18 14 13 11 11 10 9 11 9 9 7 11 9 6 10 14 10 15 14 11 9 9 8 7 7 6 5 4 4 5
40 41 35 34 29 26 17 17 23 25 23 18 17 16 18 13 11 11 11 10 11 11 12 10 12 10 11 8 14 12 12 14 10 7 7 7 6 6 4 4 4 3 5
44 41 35 33 28 24 20 21 17 17 20 18 17 16 16 13 12 13 11 10 10 8 10 12 12 14 11 12 11 10 9 11 11 8 7 7 7 7 6 6 6 5 4
41 41 37 32 28 26 24 21 18 15 22 19 16 15 15 11 12 12 15 10 7 9 13 10 13 13 15 10 11 8 9 11 11 14 12 12 12 12 8 9 7 9 8
40 42 38 35 29 27 28 23 19 17 21 20 19 16 14 13 12 14 13 12 8 10 12 12 12 10 8 10 5 3 1 2 12 15 18 16 16 15 15 13 11 8 8
35 41 42 37 31 28 28 24 19 17 21 22 22 17 17 15 12 12 14 13 9 14 11 10 11 11 7 6 5 3 2 3 3 4 10 19 18 17 15 14 13 9 6
36 41 42 39 35 30 29 28 26 20 18 23 25 21 20 18 16 13 13 14 12 13 13 10 10 9 10 6 5 5 4 2 2 2 4 10 15 15 15 14 14 12 9
35 37 43 41 38 35 32 32 29 25 20 25 26 24 21 19 18 15 14 15 15 13 13 12 11 7 6 6 2 3 8 6 5 2 3 4 11 13 13 16 15 15 14
36 36 40 42 41 39 35 32 33 29 23 20 28 29 25 24 22 19 16 14 14 14 13 14 10 10 7 6 4 3 7 1 2 6 3 6 8 9 13 15 16 14 14
Wind_Direction
173 158 147 139 132 127 116 115 123 122 121 117 115 115 115 112 110 103 112 114 114 113 111 106 105 106 99 95 98 101 104 102 99 96 97 99 100 97 95 96 97 96 94
159 155 147 144 137 133 122 122 134 130 130 121 117 118 119 116 111 103 105 109 110 116 111 112 107 108 112 105 107 109 108 102 99 95 99 99 101 98 97 97 97 100 96
158 154 147 147 142 136 129 123 127 129 126 122 124 123 119 117 110 110 107 105 117 113 119 113 110 111 113 111 108 109 109 104 103 103 103 99 99 102 100 103 98 97 98
155 152 148 149 143 138 132 126 127 127 124 124 129 129 127 119 116 112 112 110 112 114 114 116 118 113 115 117 114 112 110 108 108 108 105 104 103 102 105 99 101 101 99
153 151 148 145 141 139 136 135 138 138 135 136 128 129 128 123 119 113 113 114 108 115 116 116 117 114 115 117 117 115 112 119 118 108 109 109 108 107 106 102 102 98 96
152 149 146 142 141 137 138 138 139 139 134 129 131 132 130 128 123 116 116 114 112 115 110 113 118 118 120 116 112 113 120 128 119 112 110 112 104 103 103 103 110 103 102
150 146 143 142 142 139 136 137 135 136 133 134 129 128 128 125 121 119 117 115 112 112 115 120 125 124 125 118 108 120 115 126 118 115 115 115 113 112 110 109 106 104 108
147 145 143 143 139 136 137 133 138 136 132 132 131 131 130 126 122 128 123 119 118 120 125 124 125 129 122 112 115 118 121 125 123 122 122 120 117 121 117 112 110 107 105
147 147 145 143 140 141 136 141 138 134 132 133 130 129 129 128 127 129 124 120 121 119 116 118 130 128 121 116 118 128 131 123 128 124 126 124 124 121 114 115 115 112 109
150 148 145 146 148 144 141 141 139 134 133 129 126 125 124 125 129 133 126 121 117 112 113 119 129 133 124 112 115 122 133 130 132 131 127 127 126 125 126 125 121 118 115
149 150 152 151 150 148 145 145 143 139 136 133 129 123 121 126 131 137 127 124 119 112 118 123 132 131 119 116 116 122 131 142 132 135 132 132 126 132 131 130 127 122 116
155 157 156 154 155 153 150 150 146 141 135 135 134 120 123 123 130 136 128 125 118 119 123 128 126 127 125 123 118 135 126 160 146 141 137 137 138 138 137 131 126 119 113
160 159 162 158 158 158 159 154 149 140 139 142 139 138 140 133 134 135 127 132 122 110 122 128 132 138 139 128 135 146 153 163 153 147 145 144 146 144 141 137 126 127 129
165 164 167 163 162 162 161 162 161 158 152 146 143 151 145 143 134 130 131 140 129 126 115 129 130 125 111 113 123 167 182 174 163 152 149 153 149 149 147 144 139 143 141
166 169 169 166 165 164 165 165 169 169 169 159 153 154 158 165 147 159 153 159 176 173 135 137 124 118 87 117 142 147 165 169 159 155 153 152 151 148 152 153 162 163 159
168 172 174 172 168 170 167 171 177 178 181 172 162 161 159 165 167 172 173 168 180 184 209 214 199 154 96 119 132 158 160 157 153 152 156 158 165 166 164 173 176 183 187
174 175 177 177 178 178 178 183 184 189 181 177 173 170 163 163 162 155 160 162 158 181 182 165 165 147 130 136 151 160 161 160 153 155 156 157 161 168 179 190 197 202 205
166 174 179 177 179 174 175 164 176 180 182 173 159 163 155 162 166 168 159 157 161 165 165 135 164 177 165 149 162 164 169 166 154 166 168 168 168 168 173 180 195 212 223
167 167 168 166 160 161 149 163 166 172 175 173 172 167 169 167 172 166 168 156 157 158 140 133 172 189 191 191 160 165 180 182 173 177 185 192 195 192 185 190 197 220 241
169 165 165 172 172 165 153 154 167 172 175 179 176 169 166 174 166 162 168 163 178 157 153 144 175 171 187 167 162 180 200 209 203 205 209 215 226 216 215 224 222 230 248
169 169 171 172 175 175 173 169 165 178 183 185 176 178 176 178 175 164 165 165 165 155 163 154 150 169 185 207 176 194 232 238 231 222 226 233 232 236 234 239 243 243 241
171 177 180 182 178 186 186 184 179 171 178 190 186 185 183 183 170 172 177 169 173 184 149 157 158 162 150 154 162 142 12 253 242 235 233 239 237 238 239 242 243 249 245
172 178 181 182 181 187 188 190 186 188 186 180 184 197 192 195 177 171 172 178 183 173 176 174 178 174 170 176 166 171 96 228 306 228 231 231 236 240 233 233 243 244 260
178 180 182 183 185 191 195 195 196 198 193 197 196 195 194 195 192 182 181 183 181 188 186 191 193 177 176 169 218 226 245 145 176 341 226 224 223 234 236 230 239 238 242
179 180 184 186 188 191 198 202 205 205 207 214 205 197 195 197 199 194 185 187 190 189 194 198 189 179 199 188 220 251 257 277 263 191 272 245 236 240 244 233 243 247 246
181 181 183 186 191 193 200 207 213 214 215 207 206 202 199 199 201 198 191 189 195 192 199 189 198 193 195 200 203 307 246 310 262 226 235 255 240 258 253 249 249 255 250